EZY92D EDLW-EGAA

Flight info

Callsign EZY92D
Flight time N/A
Altitude 38000
Route HMM7Q HMM L602 NALAX L46 GETNO DCT REMSI DCT MASOP
Aircraft A319/M-SDE3FGHIRWY/LB1

Departure

Time 2026-04-29 17:21
Airport Dortmund Airport (EDLW)

Arrival

Time N/A
Airport Belfast International Airport (EGAA)
Time Latitude Longitude Altitude Speed Heading
2026-04-29 16:48 51.51534 7.61184 427 ft 0 kts 152°
2026-04-29 17:11 51.51543 7.61177 419 ft 3 kts 158°
2026-04-29 17:12 51.51561 7.61168 421 ft 3 kts 181°
2026-04-29 17:12 51.51579 7.61174 417 ft 3 kts 218°
2026-04-29 17:12 51.51592 7.61197 423 ft 3 kts 242°
2026-04-29 17:12 51.51595 7.61207 426 ft 3 kts 244°
2026-04-29 17:13 51.51601 7.61227 417 ft 1 kts 242°
2026-04-29 17:17 51.51599 7.61222 417 ft 1 kts 242°
2026-04-29 17:17 51.51593 7.61202 424 ft 2 kts 242°
2026-04-29 17:17 51.51584 7.61168 424 ft 4 kts 252°
2026-04-29 17:17 51.51579 7.61099 429 ft 8 kts 266°
2026-04-29 17:18 51.51571 7.61000 428 ft 10 kts 253°
2026-04-29 17:18 51.51539 7.60903 422 ft 10 kts 239°
2026-04-29 17:18 51.51499 7.60792 420 ft 13 kts 239°
2026-04-29 17:18 51.51454 7.60667 425 ft 11 kts 240°
2026-04-29 17:19 51.51422 7.60576 428 ft 0 kts 240°
2026-04-29 17:19 51.51417 7.60561 428 ft 5 kts 242°
2026-04-29 17:19 51.51387 7.60470 425 ft 11 kts 241°
2026-04-29 17:19 51.51360 7.60355 425 ft 11 kts 271°
2026-04-29 17:20 51.51416 7.60255 425 ft 14 kts 330°
2026-04-29 17:20 51.51499 7.60277 420 ft 16 kts 59°
2026-04-29 17:20 51.51622 7.60623 415 ft 75 kts 60°
2026-04-29 17:20 51.52008 7.61719 514 ft 138 kts 61°
2026-04-29 17:21 51.52503 7.63144 1063 ft 153 kts 61°
2026-04-29 17:21 51.53017 7.64630 1937 ft 153 kts 63°
2026-04-29 17:21 51.53563 7.66199 2386 ft 172 kts 63°
2026-04-29 17:21 51.54185 7.67985 2751 ft 194 kts 63°
2026-04-29 17:22 51.54872 7.69950 3180 ft 214 kts 62°
2026-04-29 17:22 51.55638 7.72126 3786 ft 234 kts 63°
2026-04-29 17:22 51.56459 7.74454 4592 ft 244 kts 63°
2026-04-29 17:22 51.57356 7.76830 4938 ft 251 kts 59°
2026-04-29 17:23 51.58504 7.78950 4998 ft 255 kts 38°
2026-04-29 17:23 51.60188 7.79884 5079 ft 262 kts
2026-04-29 17:23 51.62032 7.79365 5286 ft 274 kts 349°
2026-04-29 17:23 51.63880 7.78643 5339 ft 273 kts 351°
2026-04-29 17:24 51.65730 7.77972 5342 ft 272 kts 352°
2026-04-29 17:24 51.67584 7.77321 5261 ft 272 kts 352°
2026-04-29 17:24 51.69421 7.76678 5464 ft 276 kts 352°
2026-04-29 17:24 51.71285 7.76020 6564 ft 275 kts 352°
2026-04-29 17:25 51.73156 7.75361 7544 ft 276 kts 352°
2026-04-29 17:25 51.75060 7.74687 8502 ft 279 kts 352°
2026-04-29 17:25 51.76950 7.74009 9466 ft 280 kts 352°
2026-04-29 17:25 51.78851 7.73321 10400 ft 283 kts 351°
2026-04-29 17:26 51.80844 7.72603 10754 ft 306 kts 351°
2026-04-29 17:26 51.82942 7.71634 11380 ft 315 kts 340°
2026-04-29 17:26 51.84794 7.69898 12835 ft 301 kts 327°
2026-04-29 17:26 51.86286 7.67665 14278 ft 286 kts 315°
2026-04-29 17:27 51.87383 7.65117 15410 ft 277 kts 303°
2026-04-29 17:27 51.88236 7.62330 16205 ft 277 kts 301°
2026-04-29 17:27 51.89076 7.59506 16892 ft 279 kts 301°
2026-04-29 17:27 51.89919 7.56655 17545 ft 282 kts 301°
2026-04-29 17:28 51.90774 7.53756 18189 ft 286 kts 301°
2026-04-29 17:28 51.91634 7.50841 18807 ft 289 kts 301°
2026-04-29 17:28 51.92507 7.47887 19363 ft 292 kts 302°
2026-04-29 17:28 51.93388 7.44908 19920 ft 295 kts 302°
2026-04-29 17:29 51.94269 7.41926 20475 ft 298 kts 302°
2026-04-29 17:29 51.95166 7.38883 21037 ft 301 kts 302°
2026-04-29 17:29 51.96073 7.35801 21576 ft 305 kts 302°
2026-04-29 17:29 51.96988 7.32686 22067 ft 309 kts 301°
2026-04-29 17:30 51.97917 7.29520 22598 ft 313 kts 301°
2026-04-29 17:30 51.98858 7.26306 23135 ft 316 kts 301°
2026-04-29 17:30 51.99809 7.23056 23657 ft 320 kts 301°
2026-04-29 17:30 52.00767 7.19776 24152 ft 323 kts 301°
2026-04-29 17:31 52.01722 7.16500 24577 ft 327 kts 301°
2026-04-29 17:31 52.02698 7.13152 25040 ft 330 kts 301°
2026-04-29 17:31 52.03681 7.09771 25486 ft 332 kts 301°
2026-04-29 17:31 52.04670 7.06359 25935 ft 335 kts 301°
2026-04-29 17:32 52.05666 7.02920 26396 ft 338 kts 302°
2026-04-29 17:32 52.06669 6.99462 26827 ft 341 kts 302°
2026-04-29 17:32 52.07683 6.95958 27268 ft 343 kts 302°
2026-04-29 17:32 52.08697 6.92425 27710 ft 346 kts 302°
2026-04-29 17:33 52.09697 6.88914 28156 ft 348 kts 302°
2026-04-29 17:33 52.10716 6.85324 28559 ft 351 kts 301°
2026-04-29 17:33 52.11747 6.81691 28962 ft 355 kts 301°
2026-04-29 17:33 52.12798 6.78050 29387 ft 357 kts 302°
2026-04-29 17:34 52.13765 6.74313 29789 ft 363 kts 296°
2026-04-29 17:34 52.14638 6.70426 30210 ft 366 kts 296°
2026-04-29 17:34 52.15515 6.66518 30589 ft 369 kts 296°
2026-04-29 17:34 52.16396 6.62586 30915 ft 372 kts 296°
2026-04-29 17:35 52.17873 6.55967 31484 ft 376 kts 296°
2026-04-29 17:35 52.19053 6.50634 31930 ft 380 kts 296°
2026-04-29 17:35 52.19949 6.46565 32269 ft 382 kts 296°
2026-04-29 17:36 52.20845 6.42473 32624 ft 385 kts 295°
2026-04-29 17:36 52.21747 6.38345 32934 ft 388 kts 295°
2026-04-29 17:36 52.22653 6.34190 33270 ft 390 kts 295°
2026-04-29 17:36 52.23565 6.30002 33613 ft 393 kts 295°
2026-04-29 17:37 52.24482 6.25794 33944 ft 395 kts 295°
2026-04-29 17:37 52.25586 6.21716 34242 ft 394 kts 302°
2026-04-29 17:37 52.26787 6.17748 34531 ft 395 kts 302°
2026-04-29 17:37 52.28044 6.13680 34826 ft 397 kts 303°
2026-04-29 17:38 52.29299 6.09645 35026 ft 401 kts 303°
2026-04-29 17:38 52.30550 6.05614 35158 ft 407 kts 302°
2026-04-29 17:38 52.31834 6.01454 35281 ft 413 kts 302°
2026-04-29 17:38 52.33130 5.97234 35410 ft 418 kts 302°
2026-04-29 17:39 52.34437 5.92953 35513 ft 424 kts 301°
2026-04-29 17:39 52.35761 5.88605 35633 ft 430 kts 301°
2026-04-29 17:39 52.37059 5.84329 35760 ft 435 kts 301°
2026-04-29 17:39 52.38407 5.79869 35878 ft 440 kts 301°
2026-04-29 17:40 52.39769 5.75354 35998 ft 445 kts 301°
2026-04-29 17:40 52.41122 5.70870 36127 ft 449 kts 301°
2026-04-29 17:40 52.42508 5.66262 36349 ft 451 kts 301°
2026-04-29 17:40 52.43891 5.61648 36656 ft 450 kts 301°
2026-04-29 17:41 52.45266 5.57050 36970 ft 449 kts 301°
2026-04-29 17:41 52.46641 5.52461 37302 ft 448 kts 301°
2026-04-29 17:41 52.48015 5.47877 37599 ft 447 kts 301°
2026-04-29 17:41 52.49378 5.43318 37867 ft 446 kts 300°
2026-04-29 17:42 52.50746 5.38726 38143 ft 446 kts 300°
2026-04-29 17:42 52.52085 5.34213 38326 ft 446 kts 300°
2026-04-29 17:42 52.53440 5.29642 38355 ft 445 kts 300°
2026-04-29 17:43 52.56139 5.20523 38361 ft 443 kts 300°
2026-04-29 17:43 52.58831 5.11404 38357 ft 443 kts 300°
2026-04-29 17:44 52.61515 5.02268 38355 ft 443 kts 300°
2026-04-29 17:44 52.64172 4.93177 38353 ft 445 kts 300°
2026-04-29 17:45 52.66856 4.83989 38356 ft 445 kts 300°
2026-04-29 17:45 52.69532 4.74786 38369 ft 445 kts 300°
2026-04-29 17:46 52.72187 4.65568 38374 ft 445 kts 299°
2026-04-29 17:46 52.74839 4.56348 38372 ft 444 kts 299°
2026-04-29 17:47 52.77469 4.47187 38374 ft 444 kts 299°
2026-04-29 17:47 52.80111 4.37965 38383 ft 444 kts 299°
2026-04-29 17:48 52.82739 4.28724 38375 ft 444 kts 299°
2026-04-29 17:48 52.85358 4.19469 38380 ft 444 kts 299°
2026-04-29 17:49 52.87975 4.10204 38380 ft 444 kts 299°
2026-04-29 17:49 52.90568 4.00985 38374 ft 445 kts 298°
2026-04-29 17:50 52.93173 3.91689 38377 ft 445 kts 298°
2026-04-29 17:50 52.95773 3.82360 38378 ft 446 kts 298°
2026-04-29 17:51 52.98367 3.73024 38392 ft 446 kts 298°
2026-04-29 17:51 53.00953 3.63676 38413 ft 446 kts 298°
2026-04-29 17:52 53.03520 3.54385 38397 ft 446 kts 297°
2026-04-29 17:52 53.06092 3.45009 38377 ft 446 kts 297°
2026-04-29 17:53 53.08660 3.35608 38377 ft 447 kts 297°
2026-04-29 17:53 53.10706 3.25840 38369 ft 451 kts 284°
2026-04-29 17:54 53.12039 3.15703 38377 ft 451 kts 285°
2026-04-29 17:54 53.13392 3.05499 38382 ft 451 kts 284°
2026-04-29 17:55 53.14739 2.95283 38377 ft 452 kts 284°
2026-04-29 17:55 53.16075 2.85049 38379 ft 452 kts 284°
2026-04-29 17:56 53.17399 2.74787 38396 ft 453 kts 284°
2026-04-29 17:56 53.18714 2.64602 38402 ft 453 kts 284°
2026-04-29 17:57 53.20026 2.54336 38396 ft 453 kts 283°
2026-04-29 17:57 53.21324 2.44043 38383 ft 453 kts 283°
2026-04-29 17:58 53.22621 2.33746 38389 ft 454 kts 283°
2026-04-29 17:58 53.23895 2.23496 38410 ft 454 kts 283°
2026-04-29 17:59 53.25173 2.13180 38412 ft 454 kts 283°
2026-04-29 17:59 53.26439 2.02866 38415 ft 453 kts 282°
2026-04-29 18:00 53.27702 1.92537 38409 ft 454 kts 282°
2026-04-29 18:00 53.28957 1.82191 38406 ft 454 kts 282°
2026-04-29 18:01 53.30193 1.71904 38415 ft 455 kts 282°
2026-04-29 18:01 53.31428 1.61540 38413 ft 455 kts 282°
2026-04-29 18:02 53.32655 1.51159 38410 ft 455 kts 281°
2026-04-29 18:02 53.34041 1.40835 38409 ft 455 kts 284°
2026-04-29 18:03 53.35591 1.30640 38413 ft 455 kts 285°
2026-04-29 18:03 53.37142 1.20363 38417 ft 455 kts 284°
2026-04-29 18:04 53.38627 1.10047 38418 ft 456 kts 283°
2026-04-29 18:04 53.40075 0.99708 38417 ft 456 kts 283°
2026-04-29 18:05 53.41515 0.89430 38405 ft 457 kts 283°
2026-04-29 18:05 53.42971 0.79062 38412 ft 457 kts 283°
2026-04-29 18:06 53.44417 0.68683 38405 ft 457 kts 283°
2026-04-29 18:06 53.45858 0.58296 38417 ft 457 kts 283°
2026-04-29 18:07 53.47285 0.47880 38419 ft 458 kts 282°
2026-04-29 18:07 53.48695 0.37515 38403 ft 459 kts 282°
2026-04-29 18:08 53.50116 0.27057 38405 ft 460 kts 282°
2026-04-29 18:08 53.51516 0.16581 38404 ft 460 kts 282°
2026-04-29 18:09 53.52909 0.06082 38406 ft 460 kts 282°
2026-04-29 18:09 53.54301 -0.04354 38405 ft 461 kts 281°
2026-04-29 18:10 53.55686 -0.14867 38401 ft 461 kts 281°
2026-04-29 18:10 53.57065 -0.25404 38409 ft 461 kts 281°
2026-04-29 18:11 53.58432 -0.35940 38416 ft 461 kts 281°
2026-04-29 18:11 53.59783 -0.46405 38411 ft 461 kts 281°
2026-04-29 18:12 53.61135 -0.56957 38414 ft 461 kts 281°
2026-04-29 18:12 53.62466 -0.67520 38418 ft 461 kts 280°
2026-04-29 18:13 53.63785 -0.78080 38408 ft 461 kts 280°
2026-04-29 18:13 53.65101 -0.88644 38402 ft 461 kts 280°
2026-04-29 18:14 53.66407 -0.99145 38402 ft 461 kts 280°
2026-04-29 18:14 53.67495 -1.07931 38404 ft 461 kts 280°